This demonstration page uses our WeatherBlox Daily Observations layout. Learn more.

Left ArrowRight Arrow

39.08367, -84.50855

Hourly Observations for June 25, 2022

Temp ( °F °C ) Dew Point ( °F °C ) Humidity (%) Winds ( mph kmh ) Pressure ( in mb ) Visibility ( mi km ) Precip ( " mm )
12:53 am 00:53 Clear 63 17.2 61 16.1 93 93 NNE 5 7 30.05 1018 10 16 0.00 0.00
1:53 am 01:53 Clear 62 16.7 61 16.1 96 96 Calm 30.05 1018 9 14 0.00 0.00
2:53 am 02:53 Clear 61 16.1 60 15.6 97 97 Calm 30.04 1017 9 14 0.00 0.00
3:53 am 03:53 Clear with Mist and Fog 60 15.6 60 15.6 100 100 Calm 30.04 1017 6 10 0.00 0.00
4:01 am 04:01 Clear with Mist and Fog 60 15.6 60 15.6 100 100 Calm 30.06 1018 2 3 0.00 0.00
4:12 am 04:12 Clear with Mist and Fog 60 15.6 60 15.6 100 100 Calm 30.06 1018 3 5 0.00 0.00
4:41 am 04:41 Clear with Mist and Fog 59 15 59 15 100 100 ENE 3 6 30.06 1018 2 3 0.00 0.00
4:50 am 04:50 Clear 59 15 59 15 100 100 NNE 3 6 30.06 1018 7 11 0.00 0.00
4:53 am 04:53 Clear 60 15.6 59 15 96 96 Calm 30.04 1017 8 13 0.00 0.00
5:16 am 05:16 Clear with Mist and Fog 58 14.4 58 14.4 100 100 Calm 30.06 1018 2 2 0.00 0.00
5:32 am 05:32 Clear 59 15 59 15 100 100 Calm 30.06 1018 7 11 0.00 0.00
5:53 am 05:53 Clear with Mist and Fog 58 14.4 58 14.4 100 100 Calm 30.06 1018 6 10 0.00 0.00
5:58 am 05:58 Clear with Mist and Fog 58 14.4 58 14.4 100 100 Calm 30.07 1018 1 1 0.00 0.00
6:14 am 06:14 Sunny with Mist and Fog 58 14.4 58 14.4 100 100 Calm 30.07 1018 2 3 0.00 0.00
6:21 am 06:21 Sunny with Mist and Fog 59 15 59 15 100 100 Calm 30.07 1018 5 8 0.00 0.00
6:53 am 06:53 Sunny 59 15 59 15 100 100 Calm 30.07 1018 10 16 0.00 0.00
7:53 am 07:53 Sunny 65 18.3 62 16.7 90 90 Calm 30.07 1018 10 16 0.00 0.00
8:53 am 08:53 Sunny 69 20.6 64 17.8 84 84 Calm 30.08 1019 10 16 0.00 0.00
9:53 am 09:53 Sunny 72 22.2 66 18.9 82 82 Calm 30.07 1018 10 16 0.00 0.00
10:53 am 10:53 Sunny 80 26.7 66 18.9 62 62 Calm 30.06 1018 10 16 0.00 0.00
11:53 am 11:53 Sunny 85 29.4 66 18.9 53 53 Calm 30.06 1018 10 16 0.00 0.00
12:53 pm 12:53 Sunny 85 29.4 63 17.2 48 48 SSE 7 11 30.06 1018 10 16 0.00 0.00
1:53 pm 13:53 Sunny 87 30.6 64 17.8 46 46 Calm 30.04 1017 10 16 0.00 0.00
2:53 pm 14:53 Sunny 86 30 64 17.8 48 48 S 5 7 30.03 1017 10 16 0.00 0.00
3:53 pm 15:53 Sunny 86 30 65 18.3 49 49 S 5 7 30.04 1017 10 16 0.00 0.00
4:53 pm 16:53 Sunny 87 30.6 67 19.4 51 51 SSW 3 6 30.03 1017 10 16 0.00 0.00
5:53 pm 17:53 Mostly Sunny 88 31.1 64 17.8 45 45 Calm 30.01 1016 10 16 0.00 0.00
6:53 pm 18:53 Sunny 85 29.4 74 23.3 70 70 Calm 29.98 1015 10 16 0.00 0.00
7:53 pm 19:53 Sunny 82 27.8 70 21.1 67 67 S 6 9 29.97 1015 10 16 0.00 0.00
8:53 pm 20:53 Sunny 79 26.1 72 22.2 79 79 SSE 3 6 30.00 1016 10 16 0.00 0.00
9:53 pm 21:53 Mostly Clear 77 25 71 21.7 82 82 Calm 30.01 1016 10 16 0.00 0.00
10:53 pm 22:53 Clear 74 23.3 71 21.7 91 91 Calm 30.02 1017 10 16 0.00 0.00
11:53 pm 23:53 Clear 74 23.3 70 21.1 88 88 Calm 30.01 1016 10 16 0.00 0.00

Powered by AerisWeather